GW1603 Weather Reports


time (UTC)temp
F
wind
direction
speed
knots
gust
knots
rain 1hr
in
rain 24hr
in
rain mn
in
humidity
%
barometer
mb
20260505011902 69 270 0.0 0.0 0.00 0.00 0.00 62 1006.9
20260505011359 70 232 0.0 0.9 0.00 0.00 0.00 62 1006.8
20260505010855 70 251 0.9 1.7 0.00 0.00 0.00 61 1006.9
20260505010351 70 258 0.9 2.6 0.00 0.00 0.00 61 1007.0
20260505005847 71 247 0.0 1.7 0.00 0.00 0.00 59 1007.0
20260505005344 71 252 0.9 1.7 0.00 0.00 0.00 59 1007.0
20260505004842 71 224 0.9 0.9 0.00 0.00 0.00 58 1006.9
20260505004338 72 217 0.9 4.3 0.00 0.00 0.00 57 1006.7
20260505003836 72 278 0.0 1.7 0.00 0.00 0.00 57 1006.7
20260505003333 72 263 0.0 2.6 0.00 0.00 0.00 56 1006.6
20260505002828 73 289 0.0 0.9 0.00 0.00 0.00 55 1006.7
20260505002326 73 274 0.0 2.6 0.00 0.00 0.00 54 1006.6
20260505001824 73 280 0.0 1.7 0.00 0.00 0.00 54 1006.6
20260505001320 74 305 1.7 4.3 0.00 0.00 0.00 53 1006.6
20260505000818 74 10 0.0 1.7 0.00 0.00 0.00 53 1006.3
20260505000316 75 100 1.7 2.6 0.00 0.00 0.00 52 1006.3
20260504235812 75 277 2.6 4.3 0.00 0.00 0.00 52 1006.3
20260504235309 75 192 0.9 6.1 0.00 0.00 0.00 52 1006.2
20260504234806 75 259 0.9 4.3 0.00 0.00 0.00 51 1006.3
20260504234304 75 271 0.9 5.2 0.00 0.00 0.00 50 1006.5
20260504233759 76 305 0.9 2.6 0.00 0.00 0.00 48 1006.4
20260504233255 76 225 0.9 9.6 0.00 0.00 0.00 49 1006.7
20260504232752 76 199 1.7 2.6 0.00 0.00 0.00 49 1006.7
20260504232249 76 14 0.9 5.2 0.00 0.00 0.00 48 1006.8
20260504231746 77 10 1.7 5.2 0.00 0.00 0.00 47 1006.7
20260504231243 77 233 1.7 4.3 0.00 0.00 0.00 48 1006.7
20260504230738 77 272 1.7 2.6 0.00 0.00 0.00 47 1006.6
20260504230237 77 182 0.9 2.6 0.00 0.00 0.00 46 1006.8
20260504225736 77 163 2.6 6.1 0.00 0.00 0.00 45 1006.6
20260504225231 77 192 1.7 4.3 0.00 0.00 0.00 46 1006.8
20260504224729 77 208 5.2 8.7 0.00 0.00 0.00 46 1006.7
20260504224226 78 320 0.0 4.3 0.00 0.00 0.00 46 1006.7
20260504223722 78 270 2.6 4.3 0.00 0.00 0.00 44 1006.6
20260504223218 78 215 1.7 5.2 0.00 0.00 0.00 46 1006.8
20260504222715 78 320 4.3 7.0 0.00 0.00 0.00 44 1006.8
20260504222212 77 224 0.9 4.3 0.00 0.00 0.00 46 1006.9
20260504221709 77 200 2.6 4.3 0.00 0.00 0.00 45 1006.9
20260504221206 78 225 2.6 4.3 0.00 0.00 0.00 46 1007.0
20260504220703 78 190 2.6 7.0 0.00 0.00 0.00 45 1006.7
20260504220201 79 254 1.7 4.3 0.00 0.00 0.00 45 1006.9
20260504215656 78 198 1.7 4.3 0.00 0.00 0.00 45 1006.9
20260504215154 78 216 1.7 8.7 0.00 0.00 0.00 45 1006.9
20260504214649 79 178 3.5 5.2 0.00 0.00 0.00 45 1006.7
20260504214146 80 195 2.6 5.2 0.00 0.00 0.00 44 1006.8
20260504213643 80 199 2.6 2.6 0.00 0.00 0.00 44 1006.9
20260504213140 80 340 1.7 7.0 0.00 0.00 0.00 44 1007.0
20260504212636 80 212 1.7 2.6 0.00 0.00 0.00 44 1007.1
20260504212133 79 218 0.0 2.6 0.00 0.00 0.00 46 1007.1
20260504211631 80 224 2.6 6.1 0.00 0.00 0.00 43 1007.2
20260504211126 80 309 0.9 4.3 0.00 0.00 0.00 45 1007.3
20260504210625 80 174 1.7 4.3 0.00 0.00 0.00 45 1007.1
20260504210120 80 217 2.6 8.7 0.00 0.00 0.00 42 1007.1
20260504205618 80 208 0.9 2.6 0.00 0.00 0.00 46 1007.2
20260504205116 80 278 1.7 4.3 0.00 0.00 0.00 44 1007.3
20260504204614 79 204 3.5 6.1 0.00 0.00 0.00 43 1007.2
20260504204113 80 339 0.9 6.1 0.00 0.00 0.00 43 1007.3
20260504203611 80 215 3.5 6.1 0.00 0.00 0.00 41 1007.6
20260504203108 81 191 3.5 5.2 0.00 0.00 0.00 42 1007.3
20260504202603 80 306 0.0 4.3 0.00 0.00 0.00 44 1007.3
20260504202100 80 204 2.6 7.8 0.00 0.00 0.00 44 1007.6
20260504201556 80 91 2.6 7.8 0.00 0.00 0.00 43 1007.4
20260504201055 80 249 0.9 4.3 0.00 0.00 0.00 44 1007.6
20260504200550 80 341 0.9 5.2 0.00 0.00 0.00 45 1007.8
20260504200048 80 331 0.9 7.0 0.00 0.00 0.00 42 1007.8
20260504195544 80 256 0.0 4.3 0.00 0.00 0.00 43 1007.8
20260504195040 80 93 3.5 8.7 0.00 0.00 0.00 40 1007.8
20260504194537 80 112 2.6 5.2 0.00 0.00 0.00 42 1008.0
20260504194032 81 292 4.3 9.6 0.00 0.00 0.00 44 1008.1
20260504193529 80 255 0.9 5.2 0.00 0.00 0.00 42 1008.2
20260504193028 80 105 2.6 13.9 0.00 0.00 0.00 40 1008.0
20260504192526 80 320 3.5 7.0 0.00 0.00 0.00 43 1008.0
20260504192024 80 252 3.5 7.0 0.00 0.00 0.00 42 1008.1
20260504191521 80 73 0.9 2.6 0.00 0.00 0.00 44 1008.2
20260504191017 80 265 2.6 5.2 0.00 0.00 0.00 42 1008.2
20260504190514 80 185 2.6 8.7 0.00 0.00 0.00 42 1008.5
20260504190010 80 158 3.5 7.0 0.00 0.00 0.00 42 1008.4
20260504185507 80 176 2.6 6.1 0.00 0.00 0.00 41 1008.4
20260504185003 79 299 0.9 5.2 0.00 0.00 0.00 44 1008.6
20260504184459 79 211 2.6 7.0 0.00 0.00 0.00 42 1008.5
20260504183954 79 201 4.3 9.6 0.00 0.00 0.00 40 1008.7
20260504183452 79 71 5.2 7.8 0.00 0.00 0.00 44 1008.7
20260504182950 79 279 2.6 6.1 0.00 0.00 0.00 43 1008.6
20260504182446 79 208 1.7 6.1 0.00 0.00 0.00 42 1008.7
20260504181944 80 110 4.3 7.0 0.00 0.00 0.00 41 1008.6
20260504181441 79 99 1.7 2.6 0.00 0.00 0.00 44 1008.8
20260504180939 79 183 2.6 7.0 0.00 0.00 0.00 43 1008.9
20260504180438 79 246 4.3 7.8 0.00 0.00 0.00 40 1008.8
20260504175936 79 224 1.7 7.8 0.00 0.00 0.00 42 1008.9
20260504175432 79 232 4.3 7.8 0.00 0.00 0.00 40 1009.0
20260504174930 78 319 0.0 1.7 0.00 0.00 0.00 46 1008.9
20260504174428 78 126 0.9 6.1 0.00 0.00 0.00 43 1009.2
20260504173925 77 300 0.9 5.2 0.00 0.00 0.00 45 1009.0
20260504173421 77 258 2.6 7.8 0.00 0.00 0.00 43 1009.2
20260504172919 77 329 3.5 6.1 0.00 0.00 0.00 45 1009.2
20260504172414 77 172 1.7 5.2 0.00 0.00 0.00 43 1009.1
20260504171911 77 14 0.9 7.8 0.00 0.00 0.00 45 1009.2
20260504171408 77 266 2.6 5.2 0.00 0.00 0.00 44 1009.3
20260504170905 76 282 0.9 8.7 0.00 0.00 0.00 46 1009.3
20260504170402 77 268 2.6 7.8 0.00 0.00 0.00 47 1009.1
20260504160320 74 276 1.7 2.6 0.00 0.00 0.00 55 1009.9
20260504150745 72 231 0.9 6.1 0.00 0.00 0.00 55 1010.2
20260504150242 71 232 1.7 7.8 0.00 0.00 0.00 53 1010.1
20260504141211 68 213 1.7 9.6 0.00 0.00 0.00 62 1010.8
20260504140708 68 59 1.7 4.3 0.00 0.00 0.00 64 1010.6
20260504140203 67 78 0.9 7.8 0.00 0.00 0.00 63 1010.9
20260504130632 63 244 0.9 1.7 0.00 0.00 0.00 75 1011.0
20260504130129 63 277 0.9 5.2 0.00 0.00 0.00 74 1010.9
20260504110520 57 204 1.7 1.7 0.00 0.00 0.00 85 1010.1
20260504100437 55 217 0.9 0.9 0.00 0.00 0.00 88 1010.4
20260504081830 59 243 0.9 2.6 0.00 0.00 0.00 81 1010.5
20260504081326 58 247 0.0 2.6 0.00 0.00 0.00 79 1010.6
20260504080822 59 219 1.7 2.6 0.00 0.00 0.00 80 1010.5
20260504080320 59 219 0.9 1.7 0.00 0.00 0.00 79 1010.6
20260504070247 59 233 1.7 2.6 0.00 0.00 0.00 77 1010.9
20260504060207 61 232 0.9 1.7 0.00 0.00 0.00 74 1011.9
20260504050635 60 221 0.9 1.7 0.00 0.00 0.00 75 1012.7
20260504050132 60 232 0.9 1.7 0.00 0.00 0.00 75 1012.7
20260504045629 60 209 0.9 1.7 0.00 0.00 0.00 76 1012.8
20260504045124 60 242 0.9 2.6 0.00 0.00 0.00 77 1012.8
20260504044622 60 198 1.7 1.7 0.00 0.00 0.00 76 1012.7
20260504044118 60 253 0.9 1.7 0.00 0.00 0.00 76 1012.8
20260504043615 60 226 0.9 1.7 0.00 0.00 0.00 76 1012.9
20260504043113 59 250 0.9 1.7 0.00 0.00 0.00 77 1012.9
20260504042610 59 219 1.7 1.7 0.00 0.00 0.00 77 1012.9
20260504042107 60 225 0.9 1.7 0.00 0.00 0.00 76 1013.0
20260504041602 60 270 0.0 1.7 0.00 0.00 0.00 76 1013.1
20260504041059 60 245 0.0 0.9 0.00 0.00 0.00 76 1013.0
20260504040556 60 262 0.0 0.9 0.00 0.00 0.00 76 1013.1
20260504040053 60 260 0.0 0.9 0.00 0.00 0.00 76 1013.0
20260504035549 60 265 0.0 0.9 0.00 0.00 0.00 75 1013.1
20260504035046 60 232 0.9 1.7 0.00 0.00 0.00 74 1013.1
20260504034544 60 234 0.9 1.7 0.00 0.00 0.00 74 1013.1
20260504034040 60 266 0.9 0.9 0.00 0.00 0.00 75 1013.1
20260504033538 60 271 0.0 1.7 0.00 0.00 0.00 74 1013.1
20260504033035 61 248 0.9 0.9 0.00 0.00 0.00 74 1013.1
20260504032532 61 233 0.9 2.6 0.00 0.00 0.00 72 1013.1
20260504032029 61 232 0.9 1.7 0.00 0.00 0.00 73 1013.2
20260504031526 61 265 0.0 0.9 0.00 0.00 0.00 73 1013.3
20260504031022 61 242 0.9 0.9 0.00 0.00 0.00 72 1013.2
20260504030520 61 273 0.9 1.7 0.00 0.00 0.00 72 1013.1
20260504030016 61 227 0.9 1.7 0.00 0.00 0.00 71 1013.2
20260504025513 61 264 0.9 1.7 0.00 0.00 0.00 72 1013.3
20260504025009 61 252 0.9 0.9 0.00 0.00 0.00 71 1013.2
20260504024507 62 244 0.9 2.6 0.00 0.00 0.00 70 1013.1
20260504024004 61 40 0.9 1.7 0.00 0.00 0.00 71 1013.2
20260504023500 61 258 0.0 1.7 0.00 0.00 0.00 71 1013.1
20260504022956 61 272 0.0 0.9 0.00 0.00 0.00 71 1013.3
20260504022452 62 221 0.9 1.7 0.00 0.00 0.00 70 1013.1
20260504021949 62 249 0.9 0.9 0.00 0.00 0.00 69 1013.0
20260504021446 62 273 0.0 1.7 0.00 0.00 0.00 70 1013.2
20260504020943 62 269 0.0 0.9 0.00 0.00 0.00 69 1013.1
20260504020440 62 253 0.0 0.9 0.00 0.00 0.00 67 1013.1
20260504015937 62 257 0.9 1.7 0.00 0.00 0.00 68 1013.0
20260504015433 62 297 0.9 1.7 0.00 0.00 0.00 67 1012.8
20260504014929 62 263 0.9 0.9 0.00 0.00 0.00 67 1012.8
20260504014425 63 268 0.9 0.9 0.00 0.00 0.00 66 1012.8
20260504013922 63 258 0.9 2.6 0.00 0.00 0.00 65 1012.8
20260504013421 63 255 0.9 0.9 0.00 0.00 0.00 67 1013.0
20260504012916 63 220 1.7 1.7 0.00 0.00 0.00 65 1012.6
20260504012414 63 234 0.9 1.7 0.00 0.00 0.00 65 1012.6